[[{"header":{"parameterUnit":"m.s-1","parameterCategory":1,"la1":30.2991,"la2":30.254,"lo1":-89.0895,"lo2":-89.0444,"dy":0.0017,"dx":0.0017,"nx":28,"ny":28,"refTime":"2024-08-30T09:00:00:Z","depth":0,"parameterNumber":2,"parameterNumberName":"U-component_of_WINDS"},"data":[0,0,0,0,0,0,0,0,0,0,0,0,0,0,0,0,0,0,0,0,0,0,0,0,0,0,0,0,0,0,0,0,0,0,0,0,0,0,0,0,0,0,0,0,0,0,0,0,0,0,0,0,0,0,0,0,0,0,-4.2482,-4.2481,0,-4.2462,-4.2461,-4.2461,-4.2324,-4.2321,-4.2318,-4.2314,-4.2296,-4.2298,-4.2301,0,0,0,0,0,0,0,0,0,0,0,0,0,-4.2402,-4.2404,-4.2482,-4.2481,-4.2481,-4.2462,-4.2461,-4.2461,-4.2325,-4.2321,-4.2317,-4.2313,-4.2295,-4.2298,-4.2301,0,0,0,0,0,0,0,0,0,0,0,0,0,-4.2415,-4.2405,-4.2482,-4.2411,-4.2404,-4.2462,-4.2461,-4.2461,-4.2326,-4.2321,-4.2316,-4.2311,-4.2294,-4.2298,-4.2302,-4.2426,0,0,-4.2314,-4.2315,0,0,0,0,0,0,0,0,-4.2414,-4.2418,-4.2421,-4.2416,-4.2409,-4.239,-4.2426,-4.245,-4.2327,-4.2356,-4.2314,-4.2309,-4.2332,-4.2332,-4.2339,-4.2426,-4.2425,-4.2314,-4.2316,-4.2318,-4.2319,0,0,0,0,0,0,0,-4.2413,-4.2418,-4.2474,-4.2422,-4.2414,-4.238,-4.2376,-4.243,-4.2372,-4.2353,-4.2343,-4.2342,-4.2327,-4.2336,-4.2338,-4.2424,-4.2314,-4.2317,-4.232,-4.2321,-4.2608,-4.2613,0,0,0,0,0,0,-4.2422,-4.2418,-4.2474,-4.2473,-4.2399,-4.2385,-4.2381,-4.2401,-4.2371,-4.2362,-4.2347,-4.2336,-4.2332,-4.2333,-4.2337,-4.2477,-4.2318,-4.2322,-4.2324,-4.2602,-4.2609,-4.2614,0,0,0,0,0,0,-4.2421,-4.2429,-4.2475,-4.2443,-4.2446,-4.2392,-4.2416,-4.2404,-4.2412,-4.2366,-4.2355,-4.2366,-4.2328,-4.2331,-4.2404,-4.2474,-4.2324,-4.2327,-4.2596,-4.2604,-4.2612,-4.2761,0,0,0,0,0,0,-4.2419,-4.2429,-4.2476,-4.2445,-4.2448,-4.2543,-4.242,-4.2407,-4.2419,-4.2405,-4.2382,-4.2373,-4.2324,-4.2399,-4.2408,-4.2477,-4.233,-4.259,-4.26,-4.2609,-4.2749,-4.2773,-4.2793,0,0,0,0,0,-4.2417,-4.252,-4.2479,-4.2487,-4.2506,-4.2548,-4.255,-4.249,-4.2426,-4.2471,-4.2442,-4.2374,-4.2466,-4.2408,-4.2417,-4.2488,-4.2585,-4.2597,-4.2608,-4.274,-4.2768,-4.2793,0,0,0,0,0,0,-4.2563,-4.2515,-4.2469,-4.2565,-4.2561,-4.2524,-4.2581,-4.2523,-4.2539,-4.2525,-4.2452,-4.2447,-4.253,-4.2517,-4.2453,-4.2605,-4.2514,-4.2528,-4.261,-4.2637,-4.2659,-4.2659,-4.2334,0,0,0,0,0,-4.2606,-4.2643,-4.26,-4.2689,-4.2689,-4.2636,-4.2652,-4.2607,-4.26,-4.2598,-4.2573,-4.257,-4.2597,-4.2617,-4.264,-4.2748,-4.2739,-4.2801,-4.2823,-4.2841,-4.2853,-4.2905,-4.2932,-4.2653,-4.2653,-4.2653,0,0,-4.2696,-4.2674,-4.2703,-4.2718,-4.2709,-4.2749,-4.2636,-4.2683,-4.2711,-4.2605,-4.2671,-4.2653,-4.2644,-4.2734,-4.2772,-4.2725,-4.2929,-4.2856,-4.2871,-4.2873,-4.292,-4.2947,-4.297,-4.2661,-4.266,-4.2658,0,0,-4.2878,-4.2868,-4.2938,-4.2932,-4.292,-4.2883,-4.29,-4.2872,-4.2855,-4.292,-4.284,-4.2873,-4.2924,-4.2919,-4.2924,-4.3103,-4.3039,-4.3113,-4.3226,-4.3277,-4.3299,-4.3318,-4.3378,-4.3401,-4.3126,-4.3126,-4.3126,0,-4.2991,-4.3047,-4.2982,-4.3034,-4.3041,-4.2946,-4.3016,-4.3013,-4.3011,-4.3018,-4.2966,-4.3024,-4.3012,-4.3097,-4.314,-4.3149,-4.3164,-4.3113,-4.3301,-4.3319,-4.3336,-4.3393,-4.3416,-4.3135,-4.3134,-4.3133,-4.3132,0,-4.3185,-4.3225,-4.3284,-4.328,-4.3295,-4.3357,-4.33,-4.3323,-4.3276,-4.3245,-4.3311,-4.3293,-4.3309,-4.3327,-4.3283,-4.3405,-4.3376,-4.3314,-4.322,-4.3372,-4.3424,-4.3445,-4.3147,-4.3144,-4.3141,-4.3139,0,0,-4.3458,-4.3416,-4.3438,-4.3434,-4.3413,-4.3443,-4.3499,-4.3514,-4.3533,-4.3535,-4.3578,-4.3622,-4.3563,-4.3568,-4.3523,-4.3569,-4.3707,-4.35,-4.3499,-4.3536,-4.3837,-4.3881,-4.3907,-4.3667,-4.3671,-4.3674,-4.3836,0,-4.3629,-4.3721,-4.3663,-4.3764,-4.3798,-4.3707,-4.3756,-4.3748,-4.3721,-4.3746,-4.3716,-4.3746,-4.3669,-4.3671,-4.3712,-4.3682,-4.3766,-4.367,-4.3704,-4.3706,-4.3705,-4.3935,-4.3982,-4.4136,-4.3856,-4.386,-4.3862,0,-4.3842,-4.3849,-4.3953,-4.3922,-4.3934,-4.3978,-4.3985,-4.4011,-4.4,-4.3976,-4.3982,-4.3924,-4.3976,-4.3886,-4.3955,-4.3891,-4.3902,-4.3889,-4.3894,-4.3891,-4.3791,-4.3935,-4.4184,-4.4206,-4.3894,-4.3892,-4.3889,0,-4.4025,-4.4062,-4.4127,-4.4127,-4.4094,-4.4126,-4.4114,-4.4098,-4.4109,-4.4116,-4.4122,-4.4136,-4.4143,-4.4155,-4.4102,-4.4042,-4.4177,-4.4083,-4.4157,-4.4158,-4.4186,-4.4185,-4.4437,-4.4201,-4.4201,-4.42,-4.42,0,-4.4221,-4.4287,-4.4208,-4.4248,-4.4319,-4.4252,-4.4324,-4.4302,-4.4288,-4.4322,-4.4246,-4.4279,-4.421,-4.4236,-4.4196,-4.4257,-4.4262,-4.4243,-4.423,-4.4247,-4.4249,-4.4251,-4.4237,-4.4206,-4.4205,-4.4204,-4.4203,0,-4.4436,-4.4387,-4.4451,-4.4414,-4.4406,-4.4459,-4.4426,-4.4461,-4.4428,-4.4472,-4.4478,-4.4427,-4.4453,-4.4403,-4.4424,-4.4396,-4.4481,-4.4454,-4.4484,-4.4474,-4.4549,-4.4541,-4.4808,-4.4838,-4.4587,-4.459,-4.4592,0,-4.4562,-4.461,-4.4577,-4.4593,-4.4584,-4.4612,-4.4622,-4.4559,-4.4572,-4.4562,-4.4598,-4.4618,-4.4629,-4.4676,-4.4641,-4.4655,-4.4626,-4.4718,-4.4627,-4.4642,-4.4622,-4.4618,-4.4621,-4.4736,-4.4739,-4.4741,-4.4744,0,-4.479,-4.4762,-4.4779,-4.4787,-4.4801,-4.4805,-4.4804,-4.4822,-4.4754,-4.4773,-4.4798,-4.4807,-4.4827,-4.4847,-4.4853,-4.484,-4.478,-4.4773,-4.479,-4.4805,-4.4819,-4.4808,-4.453,-4.4766,-4.4764,-4.4762,-4.4761,-4.476,-4.4961,-4.4998,-4.4979,-4.4999,-4.4991,-4.4991,-4.502,-4.499,-4.501,-4.5019,-4.4981,-4.5014,-4.5,-4.5001,-4.4995,-4.502,-4.4978,-4.5004,-4.501,-4.5016,-4.5026,-4.4818,-4.5021,-4.502,-4.502,-4.5019,-4.5019,0,-4.5181,-4.5164,-4.5183,-4.5182,-4.5198,-4.514,-4.5135,-4.5152,-4.5181,-4.5172,-4.5185,-4.5213,-4.5231,-4.5197,-4.5209,-4.5236,-4.5208,-4.5241,-4.5236,-4.5233,-4.5065,-4.5046,-4.5262,-4.5262,-4.5262,-4.5262,-4.5262,-4.5262,-4.5297,-4.5354,-4.5324,-4.5376,-4.5359,-4.5389,-4.539,-4.5389,-4.5381,-4.5415,-4.5429,-4.5406,-4.5386,-4.5397,-4.5411,-4.54,-4.5406,-4.5448,-4.5428,-4.527,-4.5246,-4.5223,-4.5205,-4.5451,-4.5451,-4.5593,-4.5595,-4.5596]},{"header":{"parameterUnit":"m.s-1","parameterCategory":1,"la1":30.2991,"la2":30.254,"lo1":-89.0895,"lo2":-89.0444,"dy":0.0017,"dx":0.0017,"nx":28,"ny":28,"refTime":"2024-08-30T09:00:00:Z","depth":0,"parameterNumber":3,"parameterNumberName":"V-component_of_WINDS"},"data":[0,0,0,0,0,0,0,0,0,0,0,0,0,0,0,0,0,0,0,0,0,0,0,0,0,0,0,0,0,0,0,0,0,0,0,0,0,0,0,0,0,0,0,0,0,0,0,0,0,0,0,0,0,0,0,0,0,0,-0.048,-0.048,0,-0.0456,-0.0456,-0.0456,-0.0476,-0.0477,-0.0478,-0.0479,-0.0453,-0.0452,-0.045,0,0,0,0,0,0,0,0,0,0,0,0,0,-0.0543,-0.0542,-0.048,-0.048,-0.048,-0.0456,-0.0456,-0.0455,-0.0476,-0.0477,-0.0478,-0.0479,-0.0454,-0.0452,-0.045,0,0,0,0,0,0,0,0,0,0,0,0,0,-0.0517,-0.0541,-0.048,-0.0487,-0.0487,-0.0456,-0.0456,-0.0455,-0.0476,-0.0477,-0.0478,-0.0479,-0.0454,-0.0452,-0.045,-0.041,0,0,-0.0443,-0.0442,0,0,0,0,0,0,0,0,-0.0518,-0.0515,-0.0486,-0.0487,-0.0487,-0.047,-0.0469,-0.044,-0.0475,-0.048,-0.0479,-0.048,-0.0458,-0.0455,-0.0448,-0.0409,-0.0408,-0.0443,-0.0441,-0.0441,-0.044,0,0,0,0,0,0,0,-0.052,-0.0516,-0.0471,-0.0486,-0.0486,-0.0491,-0.0489,-0.0463,-0.0462,-0.048,-0.0481,-0.0478,-0.0458,-0.045,-0.0448,-0.0408,-0.0443,-0.0441,-0.044,-0.0439,-0.0335,-0.0334,0,0,0,0,0,0,-0.0521,-0.0517,-0.0472,-0.047,-0.0506,-0.0489,-0.0486,-0.0474,-0.0462,-0.0462,-0.0477,-0.0479,-0.0453,-0.045,-0.0447,-0.04,-0.0441,-0.0438,-0.0437,-0.0336,-0.0335,-0.0333,0,0,0,0,0,0,-0.0523,-0.0517,-0.0473,-0.0494,-0.0489,-0.0486,-0.0473,-0.0473,-0.0465,-0.046,-0.046,-0.0469,-0.0454,-0.045,-0.0419,-0.0399,-0.0437,-0.0435,-0.0338,-0.0336,-0.0334,-0.0305,0,0,0,0,0,0,-0.0524,-0.0517,-0.0503,-0.0493,-0.0487,-0.0446,-0.0472,-0.0472,-0.0461,-0.0464,-0.0453,-0.0452,-0.0455,-0.0422,-0.0417,-0.0397,-0.0434,-0.034,-0.0337,-0.0334,-0.0308,-0.0302,-0.0297,0,0,0,0,0,-0.0527,-0.0496,-0.0502,-0.0496,-0.0469,-0.0445,-0.0441,-0.0445,-0.046,-0.0445,-0.0441,-0.0452,-0.0402,-0.0419,-0.0413,-0.0392,-0.0341,-0.0338,-0.0335,-0.031,-0.0303,-0.0298,0,0,0,0,0,0,-0.0503,-0.0495,-0.0502,-0.0467,-0.0456,-0.0448,-0.0429,-0.0438,-0.0422,-0.0425,-0.043,-0.0428,-0.0395,-0.0391,-0.041,-0.0353,-0.0374,-0.0369,-0.0357,-0.0351,-0.0346,-0.0348,-0.0432,0,0,0,0,0,-0.0494,-0.0475,-0.0468,-0.0438,-0.0433,-0.0432,-0.0421,-0.0425,-0.0414,-0.041,-0.0404,-0.0393,-0.0375,-0.0362,-0.0345,-0.0307,-0.0305,-0.0289,-0.0284,-0.028,-0.0276,-0.0255,-0.0248,-0.0322,-0.0322,-0.0323,0,0,-0.0474,-0.0467,-0.0455,-0.0433,-0.0426,-0.0405,-0.0428,-0.0406,-0.0391,-0.0406,-0.0377,-0.0373,-0.036,-0.0326,-0.031,-0.0321,-0.0255,-0.0276,-0.0272,-0.0271,-0.0251,-0.0244,-0.0237,-0.032,-0.0321,-0.0321,0,0,-0.0429,-0.0422,-0.0396,-0.0387,-0.0375,-0.0375,-0.0369,-0.0359,-0.0356,-0.0327,-0.0338,-0.032,-0.0288,-0.0279,-0.027,-0.022,-0.0229,-0.0214,-0.0187,-0.0166,-0.0161,-0.0155,-0.0137,-0.0131,-0.021,-0.021,-0.021,0,-0.0406,-0.0377,-0.0381,-0.0358,-0.0348,-0.0361,-0.0335,-0.0326,-0.0309,-0.0301,-0.0313,-0.0273,-0.0266,-0.0229,-0.0217,-0.0209,-0.0201,-0.0216,-0.0161,-0.0156,-0.0151,-0.0134,-0.0127,-0.0208,-0.0209,-0.0209,-0.0209,0,-0.0349,-0.0329,-0.0309,-0.0292,-0.028,-0.0255,-0.0255,-0.0242,-0.0247,-0.0245,-0.0214,-0.0206,-0.0187,-0.0178,-0.0182,-0.0142,-0.0148,-0.016,-0.0182,-0.0142,-0.0126,-0.0119,-0.0206,-0.0206,-0.0207,-0.0207,0,0,-0.0289,-0.0274,-0.0267,-0.0259,-0.0247,-0.023,-0.0206,-0.0187,-0.0176,-0.0163,-0.0142,-0.0115,-0.0126,-0.0115,-0.0118,-0.01,-0.0061,-0.0115,-0.0114,-0.0105,-0.0015,-0.0006,0.0002,-0.0067,-0.0065,-0.0064,-0.0016,0,-0.0243,-0.0201,-0.0204,-0.0164,-0.0144,-0.0156,-0.0134,-0.0124,-0.0121,-0.0104,-0.0101,-0.0081,-0.0097,-0.0091,-0.0073,-0.0069,-0.0043,-0.0073,-0.0047,-0.0046,-0.005,0.001,0.002,0.0065,-0.0009,-0.0008,-0.0008,0,-0.0184,-0.0169,-0.0127,-0.0116,-0.0108,-0.0089,-0.0072,-0.0055,-0.0043,-0.0043,-0.0031,-0.0037,-0.0011,-0.0033,0.0002,-0.0018,-0.0008,-0.0004,-0.0002,-0.0,-0.0025,0.0014,0.008,0.0087,0.0002,0.0002,0.0001,0,-0.0143,-0.0113,-0.0084,-0.0077,-0.0064,-0.005,-0.0044,-0.0033,-0.0022,-0.0007,0.0001,0.0019,0.0029,0.0043,0.0042,0.0027,0.0078,0.0057,0.008,0.008,0.0091,0.009,0.0159,0.0098,0.0098,0.0098,0.0098,0,-0.0091,-0.0065,-0.0066,-0.0048,-0.0018,-0.0022,0.0007,0.0012,0.0022,0.0041,0.0032,0.005,0.0048,0.0067,0.0066,0.0096,0.01,0.0102,0.0102,0.0103,0.0103,0.0109,0.0106,0.01,0.0099,0.0099,0.0099,0,-0.0042,-0.0041,-0.001,-0.0,0.0003,0.0024,0.0033,0.005,0.0052,0.0076,0.0082,0.0086,0.0107,0.0108,0.0132,0.0132,0.0168,0.0164,0.0164,0.0163,0.0187,0.0185,0.0263,0.0273,0.0205,0.0205,0.0206,0,-0.0009,0.0011,0.0023,0.0035,0.0042,0.0061,0.0073,0.0071,0.0084,0.0099,0.0115,0.0135,0.0151,0.0186,0.0191,0.021,0.0207,0.0233,0.021,0.021,0.0207,0.0206,0.0208,0.0237,0.0238,0.0239,0.0239,0,0.005,0.0049,0.0066,0.0084,0.0098,0.0112,0.0125,0.0135,0.0134,0.0149,0.0171,0.0184,0.0209,0.023,0.0248,0.0255,0.0247,0.0247,0.0253,0.0254,0.0254,0.0254,0.0176,0.0245,0.0244,0.0244,0.0244,0.0243,0.0092,0.0109,0.0121,0.014,0.015,0.0162,0.0179,0.0183,0.0201,0.0221,0.0219,0.0243,0.0255,0.028,0.0288,0.0307,0.0298,0.0308,0.031,0.0312,0.0315,0.0251,0.0311,0.031,0.031,0.031,0.031,0,0.015,0.0157,0.0175,0.0193,0.0209,0.02,0.0214,0.0228,0.0249,0.0261,0.0277,0.0302,0.0323,0.033,0.0349,0.0364,0.0361,0.0369,0.0368,0.0369,0.0322,0.0314,0.0371,0.0371,0.0371,0.0371,0.0371,0.0371,0.0182,0.0211,0.0212,0.0246,0.0253,0.0276,0.0285,0.0297,0.0306,0.0334,0.0351,0.0355,0.0366,0.0386,0.0405,0.0406,0.0414,0.0424,0.0424,0.0379,0.0373,0.0367,0.036,0.0425,0.0425,0.047,0.047,0.0471]}]]